User: anonymous   Login
Location: Unspecified
(0.0000°N, 0.0000°E)
Time: 03:14:23
(UTC+00:00)
Language:

NEE 01 PEGASUS - Orbit

View from above orbital plane
View from above orbital plane
View from above satellite
View from above satellite

Ground track
Ground track

The orbit data is extracted from the following two-line orbital elements,

1 39151U 13018B   19315.70698789  .00000153  00000-0  27087-4 0  9992
2 39151  97.9744  51.0908 0018442  89.5746 270.7579 14.80093669353321
Epoch (UTC): 11 November 2019 16:58:03
Eccentricity: 0.0018442
inclination: 97.9744°
perigee height: 616 km
apogee height: 642 km
right ascension of ascending node: 51.0908°
argument of perigee: 89.5746°
revolutions per day: 14.80093669
mean anomaly at epoch: 270.7579°
orbit number at epoch: 35332

The dashed part of the orbit path shows where the satellite is in the earth's shadow,  

DLR